Showing default

LAGEOS 1, 8820

Orbit data source: Space-Track

LAGEOS 1, 8820 is a payload satellite owned by NASA MSFC (US) that was launched on Tue, 04 May 1976 UTC via a DELTA 2913 launch vehicle from the Air Force Western Test Range (AFWTR). Payload-class satellites include a variety of spacecraft equipped with specific instruments for various scientific and technological missions. These include communications satellites like Starlink; space stations such as the ISS; scientific satellites like the Hubble; Earth observation satellites from companies like Planet Labs, Umbra, and HawkEye 360; GPS; miniature CubeSats for education and research; and military/defense satellites.

Loading next visibility...
Identifier
8820, 1976-039A
Orbit
Active
Country
Flag of USUS
Related business
Manufacturer
Bendix
Mission
Operational Civil Geodetic
Bus & Motor
LAGEOS, Unknown motor
Mass
411 kg wet, 411 kg dry
Launch date (UTC)
1976-05-04 (49 years ago)
Launch vehicle
DELTA 2913
Launch site
Air Force Western Test Range (AFWTR)
Object type
Payload
Rocket body
Debris
Shape & HBR
Sphere, 0.3 m
Radar Cross Section
0.283 m², Medium (>0.1 m² and < 1m²)

Expand to show TLE details & history
Last TLE update: 1 day ago

TLE from 1 day ago
0 LAGEOS 1
1 08820U 76039A   25260.75745840  .00000038  00000-0  00000-0 0  9999
2 08820 109.8448  86.0355 0044661   0.5868 347.4305  6.38664849895731
Epoch: 2025-09-17T18:10Z
TLE epoch observation values (Epoch: 2025-09-17T18:10:44.405Z)
Latitude
-11.46937°
Longitude
-179.39862°
Altitude
5,843.195 km
Speed
5.724 km/s
True Right ascension
06h 00m 51s
True Declination
-11° 25' 49"
Sunlit
Object was in daylight at epoch
Visualization orbit readout
Latitude
Unknown
Longitude
Unknown
Altitude
Unknown
Speed
Unknown
Apparent Right ascension
Unknown
Apparent Declination
Unknown
Sunlit
N/A
Visualization observer readout
Local Sidereal Time
18:41:50
Azimuth
Unknown
Elevation
Unknown
Doppler factor
Unknown
Orbital elements
Apogee altitude
5,946.68 km
Perigee altitude
5,837.082 km
Semi-major axis
12,270.018 km
Eccentricity
0.00447
Inclination
109.8448°
RAAN
86.0355°
Arg. of periapsis
0.5868°
True anomaly
347.31852°
Mean anomaly
347.4305°
Eccentric anomaly
347.37457°
Mean motion
1.59689 °/min
Orbital period
225.44 mins
BSTAR
0
Loading maneuver chart data...
Computing Atmospheric mass density...
Loading historical data...
Loading historical data...
Loading historical data...
Loading historical data...
Loading historical data...
Loading historical data...
Loading historical data...
Other satellites on launch #39 in the year 1976 (1976-05-04 UTC)

Documentation

Showing up to 5 results
|